St. Cloud, MN

1:49 AM CST on February 21, 2018 (GMT -0600)
Saint Cloud Regional

Weather History for KSTC - June, 2014

Change the Weather History Date:

Sunday, June 8, 2014

  Actual Average Record
Temperature  
Mean Temperature 60 °F 63 °F  
Max Temperature 74 °F 75 °F 98 °F (1985)
Min Temperature 46 °F 51 °F 34 °F (1901)
Degree Days  
Heating Degree Days 5 4  
Month to date heating degree days 10 36  
Since 1 June heating degree days 10 36  
Since 1 July heating degree days 9508 8490  
Cooling Degree Days 0 2  
Month to date cooling degree days 22 15  
Year to date cooling degree days 66 40  
Since 1 June cooling degree days 22 15  
Growing Degree Days 10 (Base 50)    
Moisture  
Dew Point 44 °F    
Average Humidity 61    
Maximum Humidity 93    
Minimum Humidity 29    
Precipitation  
Precipitation 0.00 in 0.13 in 1.30 in (1927)
Month to date precipitation 1.13 1.01  
Year to date precipitation 17.48 9.32  
Snow  
Snow 0.00 in 0.00 in 0.00 in ()
Month to date snowfall 0.0 0.0  
Since 1 June snowfall 0.0 0.0  
Since 1 July snowfall 75.5 45.7  
Snow Depth 0.00 in    
Sea Level Pressure  
Sea Level Pressure 30.12 in    
Wind  
Wind Speed 1 mph (East)    
Max Wind Speed 8 mph    
Max Gust Speed 13 mph    
Visibility 9 miles    
Events      
T = Trace of Precipitation, MM = Missing Value Source: NWS Daily Summary

Daily Weather History Graph

Daily Weather History Graph

Search for Another Location

Airport or City:

Trip Planner

Search our weather history database for the weather conditions in past years. The results will help you decide how hot, cold, wet, or windy it might be!

Date:

Astronomy

Jun. 08, 2014 Rise Set
Actual Time 5:27 AM CDT 9:03 PM CDT
Civil Twilight 4:50 AM CDT 9:40 PM CDT
Nautical Twilight 4:00 AM CDT 10:30 PM CDT
Astronomical Twilight 2:54 AM CDT 11:37 PM CDT
Moon 4:09 PM CDT (6/8) 2:35 AM CDT (6/8)
Length of Visible Light 16h 50m
Length of Day
15h 35m
Waxing Gibbous, 77% of the Moon is Illuminated
Jun 8
Waxing Gibbous
Jun 12
Full
Jun 19
Last Quarter
Jun 27
New
Jul 5
First Quarter

Hourly Weather History & Observations

Time (CDT) Temp. Dew Point Humidity Pressure Visibility Wind Dir Wind Speed Gust Speed Precip Events Conditions
12:53 AM 52.0 °F 48.9 °F 89% 30.11 in 10.0 mi SE 3.5 mph - N/A   Clear
1:53 AM 50.0 °F 46.9 °F 89% 30.11 in 10.0 mi NW 3.5 mph - N/A   Clear
2:53 AM 50.0 °F 46.0 °F 86% 30.11 in 9.0 mi Calm Calm - N/A   Clear
3:53 AM 48.0 °F 44.1 °F 86% 30.12 in 10.0 mi Calm Calm - N/A   Clear
4:53 AM 46.9 °F 45.0 °F 93% 30.13 in 7.0 mi Calm Calm - N/A   Clear
5:53 AM 46.9 °F 44.1 °F 90% 30.14 in 3.0 mi Calm Calm - N/A   Clear
6:53 AM 52.0 °F 48.0 °F 86% 30.13 in 7.0 mi Calm Calm - N/A   Clear
7:53 AM 57.9 °F 50.0 °F 75% 30.14 in 10.0 mi Calm Calm - N/A   Clear
8:53 AM 63.0 °F 48.0 °F 58% 30.16 in 10.0 mi NE 3.5 mph - N/A   Clear
9:53 AM 66.0 °F 43.0 °F 43% 30.16 in 10.0 mi ESE 4.6 mph - N/A   Clear
10:53 AM 66.9 °F 43.0 °F 42% 30.16 in 10.0 mi Calm Calm - N/A   Clear
11:53 AM 70.0 °F 37.0 °F 30% 30.16 in 10.0 mi Calm Calm - N/A   Clear
12:53 PM 71.1 °F 39.0 °F 31% 30.15 in 10.0 mi Variable 5.8 mph - N/A   Clear
1:53 PM 71.1 °F 37.0 °F 29% 30.14 in 10.0 mi Calm Calm - N/A   Clear
2:53 PM 72.0 °F 39.9 °F 31% 30.12 in 10.0 mi Calm Calm - N/A   Clear
3:53 PM 73.9 °F 41.0 °F 30% 30.12 in 10.0 mi North 3.5 mph - N/A   Clear
4:53 PM 71.1 °F 37.9 °F 30% 30.11 in 10.0 mi Calm Calm - N/A   Clear
5:53 PM 71.1 °F 39.0 °F 31% 30.09 in 10.0 mi Calm Calm - N/A   Clear
6:53 PM 70.0 °F 39.9 °F 33% 30.09 in 10.0 mi Calm Calm - N/A   Clear
7:53 PM 68.0 °F 45.0 °F 43% 30.07 in 10.0 mi East 3.5 mph - N/A   Clear
8:53 PM 66.0 °F 44.1 °F 45% 30.07 in 10.0 mi SE 4.6 mph - N/A   Clear
9:53 PM 63.0 °F 46.9 °F 56% 30.08 in 10.0 mi Calm Calm - N/A   Clear
10:53 PM 59.0 °F 51.1 °F 75% 30.09 in 10.0 mi Calm Calm - N/A   Clear
11:53 PM 59.0 °F 52.0 °F 78% 30.08 in 10.0 mi Calm Calm - N/A   Clear